TimePDT,TemperatureF,Dew PointF,Humidity,Sea Level PressureIn,VisibilityMPH,Wind Direction,Wind SpeedMPH,Gust SpeedMPH,PrecipitationIn,Events,Conditions,WindDirDegrees,DateUTC
9:35 AM,-9999,-9999,N/A,30.35,10.0,Calm,Calm,-,N/A,,Unknown,0,2013-04-23 16:35:00
9:55 AM,48.2,37.4,66,30.35,10.0,North,4.6,-,N/A,,Mostly Cloudy,350,2013-04-23 16:55:00
10:35 AM,48.2,37.4,66,30.35,10.0,Calm,Calm,-,N/A,,Unknown,0,2013-04-23 17:35:00
10:55 AM,50.0,39.2,66,30.35,10.0,Calm,Calm,-,N/A,,Overcast,0,2013-04-23 17:55:00
11:15 AM,51.8,37.4,58,30.35,10.0,Calm,Calm,-,N/A,,Overcast,0,2013-04-23 18:15:00
11:35 AM,53.6,37.4,54,30.34,10.0,Calm,Calm,-,N/A,,Overcast,0,2013-04-23 18:35:00
11:55 AM,53.6,37.4,54,30.35,10.0,Calm,Calm,-,N/A,,Overcast,0,2013-04-23 18:55:00
12:15 PM,55.4,37.4,51,30.34,10.0,Calm,Calm,-,N/A,,Overcast,0,2013-04-23 19:15:00
12:35 PM,55.4,37.4,51,30.34,10.0,NW,6.9,-,N/A,,Mostly Cloudy,320,2013-04-23 19:35:00
12:55 PM,55.4,42.8,63,30.33,10.0,NW,8.1,-,N/A,,Partly Cloudy,310,2013-04-23 19:55:00
1:15 PM,57.2,33.8,41,30.32,10.0,West,5.8,-,N/A,,Clear,270,2013-04-23 20:15:00
1:35 PM,57.2,35.6,44,30.31,10.0,West,8.1,-,N/A,,Clear,280,2013-04-23 20:35:00
1:55 PM,59.0,33.8,39,30.31,10.0,West,6.9,-,N/A,,Clear,280,2013-04-23 20:55:00
2:15 PM,59.0,32.0,36,30.31,10.0,NW,13.8,-,N/A,,Clear,320,2013-04-23 21:15:00
2:35 PM,60.8,35.6,39,30.31,10.0,West,13.8,-,N/A,,Clear,280,2013-04-23 21:35:00
2:55 PM,60.8,30.2,31,30.30,10.0,WNW,13.8,19.6,N/A,,Clear,300,2013-04-23 21:55:00
3:15 PM,59.0,30.2,34,30.30,10.0,NW,15.0,20.7,N/A,,Clear,310,2013-04-23 22:15:00
3:35 PM,60.8,33.8,36,30.29,10.0,NW,12.7,-,N/A,,Clear,320,2013-04-23 22:35:00
3:55 PM,59.0,32.0,36,30.29,10.0,WNW,11.5,-,N/A,,Clear,300,2013-04-23 22:55:00
4:15 PM,60.8,33.8,36,30.28,10.0,NW,11.5,-,N/A,,Clear,320,2013-04-23 23:15:00
4:35 PM,59.0,35.6,42,30.28,10.0,NW,12.7,-,N/A,,Clear,310,2013-04-23 23:35:00
4:55 PM,59.0,37.4,45,30.28,10.0,NW,13.8,-,N/A,,Clear,310,2013-04-23 23:55:00
5:15 PM,59.0,37.4,45,30.28,10.0,WNW,11.5,-,N/A,,Clear,300,2013-04-24 00:15:00
5:35 PM,59.0,39.2,48,30.28,10.0,WNW,11.5,-,N/A,,Clear,300,2013-04-24 00:35:00
5:55 PM,59.0,39.2,48,30.27,10.0,NW,10.4,-,N/A,,Clear,310,2013-04-24 00:55:00
6:15 PM,59.0,39.2,48,30.27,10.0,WNW,10.4,-,N/A,,Clear,300,2013-04-24 01:15:00
6:35 PM,57.2,37.4,48,30.27,10.0,WNW,12.7,-,N/A,,Clear,290,2013-04-24 01:35:00
6:55 PM,57.2,37.4,48,30.27,10.0,NW,13.8,-,N/A,,Clear,310,2013-04-24 01:55:00
7:15 PM,55.4,39.2,54,30.27,10.0,NW,11.5,-,N/A,,Clear,310,2013-04-24 02:15:00
7:35 PM,53.6,39.2,58,30.27,10.0,NW,8.1,-,N/A,,Clear,310,2013-04-24 02:35:00
7:55 PM,53.6,39.2,58,30.27,10.0,NW,8.1,-,N/A,,Clear,320,2013-04-24 02:55:00
8:15 PM,51.8,37.4,58,30.28,10.0,NW,8.1,-,N/A,,Clear,320,2013-04-24 03:15:00
8:35 PM,50.0,37.4,62,30.29,10.0,NW,5.8,-,N/A,,Clear,310,2013-04-24 03:35:00
8:55 PM,48.2,35.6,62,30.29,10.0,NW,10.4,-,N/A,,Clear,310,2013-04-24 03:55:00
9:15 PM,48.2,37.4,66,30.30,10.0,NW,5.8,-,N/A,,Clear,320,2013-04-24 04:15:00
9:35 PM,48.2,37.4,66,30.30,10.0,NW,6.9,-,N/A,,Clear,320,2013-04-24 04:35:00
9:55 PM,46.4,37.4,71,30.31,10.0,NW,6.9,-,N/A,,Clear,320,2013-04-24 04:55:00
10:15 PM,46.4,37.4,71,30.31,10.0,NNE,3.5,-,N/A,,Clear,20,2013-04-24 05:15:00
10:35 PM,48.2,37.4,66,30.32,10.0,North,3.5,-,N/A,,Clear,10,2013-04-24 05:35:00
10:55 PM,46.4,37.4,71,30.32,10.0,North,3.5,-,N/A,,Clear,10,2013-04-24 05:55:00
11:15 PM,44.6,35.6,71,30.32,10.0,NNW,3.5,-,N/A,,Clear,330,2013-04-24 06:15:00
11:35 PM,44.6,37.4,76,30.32,10.0,Calm,Calm,-,N/A,,Clear,0,2013-04-24 06:35:00
11:55 PM,41.0,35.6,81,30.33,10.0,Calm,Calm,-,N/A,,Clear,0,2013-04-24 06:55:00